ANACAPA ISLAND CA US current weather conditions

sailwx.info

Wind from 043 at 6 knots gusting 10

Air temperature 10.0° C
Dewpoint 0.1° C

Last reported at 2017-Feb-24 09:23 UTC.
Time now 2017-Feb-24 10:29 UTC

Location: N 34°01' W 119°22'.
View on Google Maps.

See reports from other nearby stations

  
Tides and Currents Weather Stations Pressure Air Temp Water Temp Dewpoint Dewpoint Depression Visibility Wind Speed Wind Dir Waves Ship Positions
date/time (UTC)wind fromknots sea level pressurealtimeterstation pressurevisibilityair tempwater tempwave heightnotes
2017-Feb-24 09:23 043 6 gusting 10 10.0
2017-Feb-24 08:23 036 7 gusting 18 10.0
2017-Feb-24 07:23 333 13 gusting 21 11.1
2017-Feb-24 06:23 332 13 gusting 20 11.1
2017-Feb-24 05:23 318 13 gusting 23 11.1
2017-Feb-24 04:23 325 12 gusting 28 11.1
2017-Feb-24 03:23 310 19 gusting 30 11.1
2017-Feb-24 02:23 302 17 gusting 26 11.7
2017-Feb-24 01:23 297 17 gusting 32 12.2
2017-Feb-24 00:23 295 18 gusting 30 12.2
2017-Feb-23 23:23 292 17 gusting 26 12.8
2017-Feb-23 22:23 298 15 gusting 25 12.8
2017-Feb-23 21:23 299 16 gusting 26 12.2
2017-Feb-23 20:23 304 13 gusting 26 12.2
2017-Feb-23 19:23 317 11 gusting 24 11.7
2017-Feb-23 18:23 318 12 gusting 23 11.7
2017-Feb-23 17:23 331 13 gusting 22 11.1
2017-Feb-23 16:23 331 13 gusting 22 10.6
2017-Feb-23 15:23 332 15 gusting 24 10.6
2017-Feb-23 14:23 324 13 gusting 23 10.6
2017-Feb-23 13:23 309 14 gusting 23 10.6
2017-Feb-23 12:23 320 11 gusting 22 10.6
2017-Feb-23 11:23 324 13 gusting 24 11.1
2017-Feb-23 10:23 332 18 gusting 26 11.7
2017-Feb-23 09:23 317 13 gusting 26 11.1
2017-Feb-23 08:23 313 13 gusting 21 11.7
2017-Feb-23 07:23 308 15 gusting 24 11.1
2017-Feb-23 06:23 308 14 gusting 23 11.7
2017-Feb-23 05:23 302 15 gusting 25 11.7
2017-Feb-23 04:23 300 14 gusting 26 12.2
2017-Feb-23 03:23 300 18 gusting 30 12.2
2017-Feb-23 02:23 299 19 gusting 29 12.2
2017-Feb-23 01:23 306 18 gusting 30 12.8
2017-Feb-23 00:23 298 19 gusting 30 13.3
2017-Feb-22 23:23 301 18 gusting 28 13.9
2017-Feb-22 22:23 294 17 gusting 26 13.9
2017-Feb-22 21:23 297 15 gusting 26 13.9
2017-Feb-22 20:23 294 13 gusting 20 13.9
2017-Feb-22 19:23 294 12 gusting 20 13.3
2017-Feb-22 18:23 296 13 gusting 20 13.3
2017-Feb-22 17:23 298 13 gusting 19 12.8
2017-Feb-22 16:23 298 13 gusting 22 12.8
2017-Feb-22 15:23 295 12 gusting 20 12.2
2017-Feb-22 14:23 298 12 gusting 21 12.2
2017-Feb-22 13:23 298 10 gusting 17 12.2
2017-Feb-22 12:23 294 12 gusting 19 12.2
2017-Feb-22 11:23 291 11 gusting 18 12.2
2017-Feb-22 10:23 298 9 gusting 18 12.8